Flag for India Weather past 2 weeks in Ahmedabad, Gujarat, India

Now
77 °F

Clear.


Feels Like: 79 °F
Forecast: 69 / 98 °F
Wind: 3 mph from Northwest

Location: Ahmadabad Airport

Current Time: Mar 30, 2015 at 8:22:28 AM

Latest Report: Mar 30, 2015 at 5:40 AM


Visibility: 2 mi

Pressure: 29.77 "Hg

Humidity: 47%

Dew point: 55 °F

Location of AhmedabadLocation

Historic Weather in Ahmedabad — Graph

°F

Ahmedabad temperature yesterday

Maximum temperature yesterday: 97 °F (at 12:40 PM)
Minimum temperature yesterday: 82 °F (at 5:40 AM)
Average temperature yesterday: 89 °F

Past Weeks' High & Low Weather Summary

 TemperatureHumidityPressure
High111 °F (Mar 25, 4:40 PM)78% (Mar 16, 7:40 AM)30.07 "Hg (Mar 16, 7:40 AM)
Low64 °F (Mar 17, 5:40 AM)13% (Mar 23, 3:40 PM)29.71 "Hg (Mar 24, 4:40 PM)
Average87 °F35%29.86 "Hg
* Reported Mar 15 5:40 AM — Mar 30 5:40 AM, Ahmedabad, Weather by CustomWeather, © 2015

Note: Actual official high and low records may vary slightly from our data, if they occured in-between our weather recording intervals... More about our weather records

Advertising

Ahmedabad weather history for previous 24 hours

 ConditionsComfort  
Time TempWeatherWind HumidityBarometerVisibility
5:40 AM
Mon, Mar 30
77 °FClear.3 mph47%29.77 "Hg2 mi
4:40 AM79 °FClear.5 mph45%29.74 "Hg2 mi
3:40 AM81 °FClear.6 mph39%29.74 "Hg2 mi
2:40 AM81 °FClear.5 mph39%29.77 "Hg2 mi
12:40 AM82 °FPassing clouds.3 mph37%29.77 "Hg2 mi
11:40 PM
Sun, Mar 29
82 °FClear.6 mph35%29.80 "Hg2 mi
10:40 PM84 °FClear.5 mph33%29.80 "Hg2 mi
8:40 PM90 °FPartly cloudy.5 mph27%29.77 "Hg2 mi
7:40 PM91 °FPartly cloudy.5 mph26%29.74 "Hg2 mi
6:40 PM91 °FBroken clouds.8 mph26%29.74 "Hg2 mi
5:40 PM91 °FBroken clouds.12 mph28%29.77 "Hg2 mi
4:40 PM95 °FExtremely hot.12 mph25%29.74 "HgN/A
2:40 PM97 °FBroken clouds.6 mph25%29.77 "Hg3 mi
1:40 PM97 °FBroken clouds.6 mph28%29.77 "Hg3 mi
12:40 PM97 °FScattered clouds.5 mph28%29.80 "Hg3 mi
11:40 AM95 °FScattered clouds.6 mph30%29.83 "Hg3 mi
9:40 AM91 °FScattered clouds.6 mph36%29.83 "Hg2 mi
8:40 AM88 °FScattered clouds.6 mph46%29.83 "Hg2 mi
Weather by CustomWeather, © 2015

See weather overviewHow to use our weather pages